Weather History for KVPZ - July, 2013

Change the Weather History Date:

Thursday, July 18, 2013

  Actual Average Record
Temperature  
Mean Temperature 84 °F 73 °F  
Max Temperature 93 °F 83 °F 97 °F (2012)
Min Temperature 74 °F 62 °F 53 °F (2014)
Degree Days  
Heating Degree Days 0 0  
Month to date heating degree days 2 0  
Since 1 June heating degree days 39 41  
Since 1 July heating degree days 2 0  
Cooling Degree Days 19 8  
Month to date cooling degree days 140 144  
Year to date cooling degree days 408 355  
Since 1 June cooling degree days 307 308  
Growing Degree Days 32 (Base 50)    
Moisture  
Dew Point 72 °F    
Average Humidity 69    
Maximum Humidity 91    
Minimum Humidity 50    
Precipitation  
Precipitation 0.00 in 0.17 in 1.07 in (2007)
Month to date precipitation 0.97 2.62  
Year to date precipitation 21.52 19.51  
Sea Level Pressure  
Sea Level Pressure 30.10 in    
Wind  
Wind Speed 6 mph (SW)    
Max Wind Speed 17 mph    
Max Gust Speed 21 mph    
Visibility 10 miles    
Events      
T = Trace of Precipitation, MM = Missing Value Source: NWS Daily Summary

Daily Weather History Graph

Daily Weather History Graph

Search for Another Location

Airport or City:

Trip Planner

Search our weather history database for the weather conditions in past years. The results will help you decide how hot, cold, wet, or windy it might be!

Date:

Astronomy

Jul. 18, 2013 Rise Set
Actual Time 5:30 AM CDT 8:17 PM CDT
Civil Twilight 4:57 AM CDT 8:50 PM CDT
Nautical Twilight 4:16 AM CDT 9:31 PM CDT
Astronomical Twilight 3:29 AM CDT 10:18 PM CDT
Moon 4:14 PM CDT (7/18) 1:20 AM CDT (7/18)
Length of Visible Light 15h 52m
Length of Day
14h 47m
Waxing Gibbous, 77% of the Moon is Illuminated
Jul 18
Waxing Gibbous
Jul 22
Full
Jul 29
Last Quarter
Aug 6
New
Aug 14
First Quarter

Hourly Weather History & Observations

Time (CDT) Temp. Heat Index Dew Point Humidity Pressure Visibility Wind Dir Wind Speed Gust Speed Precip Events Conditions
12:53 AM 80.1 °F 83.6 °F 71.1 °F 74% 30.19 in 10.0 mi WSW 3.5 mph - N/A   Clear
1:53 AM 77.0 °F - 71.1 °F 82% 30.18 in 10.0 mi Calm Calm - N/A   Clear
2:53 AM 75.9 °F - 71.1 °F 85% 30.17 in 10.0 mi Calm Calm - N/A   Clear
3:53 AM 75.0 °F - 71.1 °F 87% 30.17 in 10.0 mi Calm Calm - N/A   Clear
4:53 AM 73.9 °F - 71.1 °F 91% 30.17 in 9.0 mi Calm Calm - N/A   Clear
5:53 AM 75.0 °F - 71.1 °F 87% 30.17 in 8.0 mi Calm Calm - N/A   Clear
6:53 AM 77.0 °F - 72.0 °F 84% 30.16 in 8.0 mi SSW 3.5 mph - N/A   Clear
7:53 AM 80.1 °F 84.5 °F 73.9 °F 81% 30.16 in 10.0 mi SW 4.6 mph - N/A   Clear
8:53 AM 84.0 °F 91.9 °F 75.0 °F 74% 30.16 in 10.0 mi SSW 3.5 mph - N/A   Clear
9:53 AM 87.1 °F 96.3 °F 75.0 °F 67% 30.15 in 10.0 mi SSW 6.9 mph - N/A   Clear
10:53 AM 90.0 °F 99.0 °F 73.9 °F 59% 30.14 in 10.0 mi South 9.2 mph - N/A   Scattered Clouds
11:53 AM 90.0 °F 97.9 °F 73.0 °F 57% 30.13 in 10.0 mi SSW 9.2 mph - N/A   Partly Cloudy
12:53 PM 91.0 °F 98.2 °F 72.0 °F 53% 30.12 in 10.0 mi Variable 5.8 mph - N/A   Clear
1:53 PM 91.9 °F 99.5 °F 72.0 °F 52% 30.09 in 10.0 mi WSW 11.5 mph - N/A   Partly Cloudy
2:53 PM 91.9 °F 99.5 °F 72.0 °F 52% 30.07 in 10.0 mi SSW 11.5 mph 20.7 mph N/A   Clear
3:53 PM 91.9 °F 99.5 °F 72.0 °F 52% 30.04 in 10.0 mi SSW 9.2 mph - N/A   Clear
4:53 PM 91.9 °F 99.5 °F 72.0 °F 52% 30.03 in 10.0 mi WSW 9.2 mph - N/A   Clear
5:53 PM 91.9 °F 98.4 °F 71.1 °F 50% 30.00 in 10.0 mi SSW 10.4 mph - N/A   Clear
6:53 PM 87.1 °F 93.6 °F 72.0 °F 61% 30.00 in 10.0 mi WSW 9.2 mph - N/A   Clear
7:53 PM 84.9 °F 90.1 °F 71.1 °F 63% 30.00 in 10.0 mi WSW 5.8 mph - N/A   Clear
8:53 PM 84.0 °F 89.0 °F 71.1 °F 65% 30.00 in 10.0 mi SW 4.6 mph - N/A   Clear
9:53 PM 82.0 °F 86.7 °F 72.0 °F 71% 30.00 in 10.0 mi SSW 4.6 mph - N/A   Clear
10:53 PM 81.0 °F 85.8 °F 73.0 °F 77% 29.99 in 10.0 mi SSW 5.8 mph - N/A   Clear
11:53 PM 79.0 °F - 73.0 °F 82% 29.99 in 10.0 mi SSW 6.9 mph - N/A   Clear